FW5316 Weather Reports


Display with metric or nautical units.
time (UTC)temp
F
wind
direction
speed
MPH
gust
MPH
rain 1hr
in
rain 24hr
in
rain mn
in
humidity
%
barometer
mb
20260508035515 62 173 4.0 8.0 0.00 0.00 0.00 81 1016.6
20260508034515 62 185 5.0 9.0 0.00 0.00 0.00 80 1016.6
20260508033515 62 202 4.0 7.0 0.00 0.00 0.00 81 1016.5
20260508032515 62 185 5.0 9.0 0.00 0.00 0.00 80 1016.4
20260508031517 62 188 4.0 8.0 0.00 0.00 0.00 80 1016.2
20260508030517 63 190 4.0 8.0 0.00 0.00 0.00 80 1015.9
20260508025537 63 196 4.0 9.0 0.00 0.00 0.00 79 1015.8
20260508024518 63 196 5.0 9.0 0.00 0.00 0.00 79 1015.7
20260508023537 63 181 7.0 12.0 0.00 0.00 0.00 78 1015.6
20260508022516 64 195 6.0 11.0 0.00 0.00 0.00 77 1015.5
20260508021517 64 195 6.0 10.0 0.00 0.00 0.00 77 1015.4
20260508020516 65 187 6.0 11.0 0.00 0.00 0.00 76 1015.2
20260508015517 65 192 6.0 10.0 0.00 0.00 0.00 76 1015.2
20260508014517 66 186 7.0 11.0 0.00 0.00 0.00 74 1015.2
20260508013517 67 188 6.0 10.0 0.00 0.00 0.00 73 1015.2
20260508012518 67 194 7.0 10.0 0.00 0.00 0.00 72 1015.1
20260508011538 68 208 6.0 9.0 0.00 0.00 0.00 72 1015.1
20260508010517 69 196 6.0 10.0 0.00 0.00 0.00 71 1015.0
20260508005517 69 198 6.0 12.0 0.00 0.00 0.00 70 1015.0
20260508004516 70 186 6.0 14.0 0.00 0.00 0.00 68 1015.0
20260508003517 71 206 4.0 12.0 0.00 0.00 0.00 67 1015.2
20260508002517 71 241 3.0 8.0 0.00 0.00 0.00 67 1015.2
20260508001516 71 275 4.0 7.0 0.00 0.00 0.00 67 1015.1
20260508000516 71 232 3.0 8.0 0.00 0.00 0.00 67 1015.2
20260507235516 71 230 4.0 10.0 0.00 0.00 0.00 66 1015.2
20260507234516 72 231 5.0 12.0 0.00 0.00 0.00 65 1015.1
20260507233537 72 231 5.0 11.0 0.00 0.00 0.00 65 1015.2
20260507232516 72 227 5.0 10.0 0.00 0.00 0.00 64 1015.2
20260507231516 73 246 4.0 10.0 0.00 0.00 0.00 63 1015.2
20260507230516 73 240 4.0 11.0 0.00 0.00 0.00 63 1015.2
20260507225517 74 228 5.0 10.0 0.00 0.00 0.00 63 1015.3
20260507224516 74 228 5.0 12.0 0.00 0.00 0.00 62 1015.3
20260507223517 75 245 6.0 13.0 0.00 0.00 0.00 61 1015.3
20260507222516 76 215 7.0 15.0 0.00 0.00 0.00 60 1015.4
20260507221516 77 261 5.0 12.0 0.00 0.00 0.00 58 1015.6
20260507220516 78 292 5.0 11.0 0.00 0.00 0.00 58 1015.7
20260507215516 78 255 5.0 13.0 0.00 0.00 0.00 57 1015.8
20260507214516 78 305 5.0 11.0 0.00 0.00 0.00 57 1015.8
20260507213516 78 259 4.0 10.0 0.00 0.00 0.00 57 1016.0
20260507212516 78 287 5.0 10.0 0.00 0.00 0.00 57 1016.0
20260507211516 77 284 6.0 13.0 0.00 0.00 0.00 58 1016.1
20260507210517 77 248 4.0 10.0 0.00 0.00 0.00 59 1016.1
20260507205516 76 242 6.0 14.0 0.00 0.00 0.00 59 1016.2
20260507204537 76 242 6.0 13.0 0.00 0.00 0.00 59 1016.2
20260507203516 77 231 7.0 15.0 0.00 0.00 0.00 59 1016.2
20260507202516 78 244 6.0 15.0 0.00 0.00 0.00 58 1016.2
20260507201536 78 246 5.0 16.0 0.00 0.00 0.00 58 1016.2
20260507200516 77 237 5.0 15.0 0.00 0.00 0.00 58 1016.2
20260507195516 79 219 8.0 19.0 0.00 0.00 0.00 55 1016.2
20260507194516 80 247 6.0 11.0 0.00 0.00 0.00 55 1016.2
20260507193517 80 288 4.0 10.0 0.00 0.00 0.00 56 1016.2
20260507192516 78 268 4.0 13.0 0.00 0.00 0.00 57 1016.2
20260507191516 78 247 5.0 15.0 0.00 0.00 0.00 58 1016.3
20260507190516 78 242 6.0 12.0 0.00 0.00 0.00 58 1016.3
20260507185516 78 253 5.0 11.0 0.00 0.00 0.00 57 1016.5
20260507184516 78 232 6.0 13.0 0.00 0.00 0.00 56 1016.6
20260507183516 80 213 6.0 12.0 0.00 0.00 0.00 54 1016.7
20260507182516 80 296 3.0 9.0 0.00 0.00 0.00 55 1016.8
20260507181536 79 258 1.0 8.0 0.00 0.00 0.00 56 1016.9
20260507180516 79 296 3.0 7.0 0.00 0.00 0.00 57 1016.9
20260507175516 78 317 4.0 11.0 0.00 0.00 0.00 59 1017.0
20260507174536 77 242 1.0 8.0 0.00 0.00 0.00 59 1017.1
20260507173516 76 260 3.0 7.0 0.00 0.00 0.00 60 1017.1
20260507172516 75 314 2.0 7.0 0.00 0.00 0.00 63 1017.2
20260507171536 74 233 3.0 7.0 0.00 0.00 0.00 64 1017.2
20260507170516 73 269 3.0 9.0 0.00 0.00 0.00 65 1017.3
20260507165516 71 344 2.0 6.0 0.00 0.00 0.00 71 1017.4
20260507164536 67 327 2.0 6.0 0.00 0.00 0.00 74 1017.4
20260507163516 66 327 2.0 6.0 0.00 0.00 0.00 75 1017.5
20260507162536 66 292 1.0 3.0 0.00 0.00 0.00 75 1017.6
20260507161515 65 287 1.0 6.0 0.00 0.00 0.00 75 1017.6
20260507160516 65 290 3.0 6.0 0.00 0.00 0.00 76 1017.6
20260507155516 64 346 3.0 5.0 0.00 0.00 0.00 78 1017.6
20260507154516 63 336 2.0 7.0 0.00 0.00 0.00 78 1017.6
20260507153517 63 292 1.0 4.0 0.00 0.00 0.00 79 1017.5
20260507152516 62 319 1.0 6.0 0.00 0.00 0.00 80 1017.4
20260507151516 61 72 2.0 4.0 0.00 0.00 0.00 81 1017.4
20260507150516 61 0.0 0.0 0.00 0.00 0.00 81 1017.3
20260507145516 60 0.0 0.0 0.00 0.00 0.00 83 1017.3
20260507144515 60 0.0 0.0 0.00 0.00 0.00 83 1017.3
20260507143556 59 0.0 0.0 0.00 0.00 0.00 83 1017.2
20260507142536 59 0.0 0.0 0.00 0.00 0.00 83 1017.2
20260507141515 59 0.0 0.0 0.00 0.00 0.00 83 1017.1
20260507140516 58 0.0 0.0 0.00 0.00 0.00 83 1017.0
20260507135515 58 0.0 0.0 0.00 0.00 0.00 84 1016.9
20260507134516 58 0.0 0.0 0.00 0.00 0.00 85 1016.8
20260507133515 57 0.0 0.0 0.00 0.00 0.00 85 1016.8
20260507132515 57 0.0 0.0 0.00 0.00 0.00 86 1016.8
20260507131516 56 0.0 0.0 0.00 0.00 0.00 85 1016.8
20260507130515 56 0.0 0.0 0.00 0.00 0.00 85 1016.7
20260507125535 56 0.0 0.0 0.00 0.00 0.00 85 1016.6
20260507124555 56 0.0 0.0 0.00 0.00 0.00 85 1016.5
20260507123515 56 0.0 0.0 0.00 0.00 0.00 85 1016.4
20260507122515 56 0.0 0.0 0.00 0.00 0.00 85 1016.4
20260507121515 56 0.0 0.0 0.00 0.00 0.00 84 1016.5
20260507120515 57 0.0 0.0 0.00 0.00 0.00 84 1016.5
20260507115516 57 0.0 0.0 0.00 0.00 0.00 84 1016.5
20260507114515 57 0.0 0.0 0.00 0.00 0.00 84 1016.4
20260507113516 57 0.0 0.0 0.00 0.00 0.00 83 1016.4
20260507112515 58 335 0.0 2.0 0.00 0.00 0.00 84 1016.5
20260507111536 58 335 1.0 4.0 0.00 0.00 0.00 84 1016.5
20260507110515 58 331 2.0 4.0 0.00 0.00 0.00 85 1016.6
20260507105535 58 0.0 0.0 0.00 0.00 0.00 85 1016.6
20260507104515 58 0.0 0.0 0.00 0.00 0.00 85 1016.7
20260507103535 58 0.0 0.0 0.00 0.00 0.00 85 1016.8
20260507102515 58 0.0 0.0 0.00 0.00 0.00 85 1016.8
20260507101516 58 0.0 0.0 0.00 0.00 0.00 85 1016.9
20260507100515 58 0.0 0.0 0.00 0.00 0.00 85 1016.8
20260507095515 58 0.0 0.0 0.00 0.00 0.00 84 1016.9
20260507094515 58 0.0 0.0 0.00 0.00 0.00 84 1017.0
20260507093515 58 0.0 0.0 0.00 0.00 0.00 84 1017.0
20260507092515 58 0.0 0.0 0.00 0.00 0.00 84 1017.1
20260507091515 59 0.0 0.0 0.00 0.00 0.00 84 1017.3
20260507090535 59 0.0 0.0 0.00 0.00 0.00 84 1017.3
20260507085515 59 0.0 0.0 0.00 0.00 0.00 84 1017.4
20260507084535 59 0.0 0.0 0.00 0.00 0.00 83 1017.6
20260507083515 59 0.0 0.0 0.00 0.00 0.00 83 1017.7
20260507082515 59 0.0 0.0 0.00 0.00 0.00 83 1017.8
20260507081515 59 0.0 0.0 0.00 0.00 0.00 83 1017.8
20260507080515 60 0.0 0.0 0.00 0.00 0.00 83 1017.8
20260507075515 60 0.0 0.0 0.00 0.00 0.00 83 1017.9
20260507074516 60 0.0 0.0 0.00 0.00 0.00 82 1017.8
20260507073515 60 0.0 0.0 0.00 0.00 0.00 82 1017.8
20260507072515 60 0.0 0.0 0.00 0.00 0.00 82 1017.7
20260507071515 60 0.0 0.0 0.00 0.00 0.00 82 1017.7
20260507070535 60 0.0 0.0 0.00 0.00 0.00 82 1017.8
20260507065555 60 0.0 0.0 0.00 0.00 0.00 82 1017.9
20260507064535 60 0.0 0.0 0.00 0.00 0.00 82 1018.0
20260507063556 61 0.0 0.0 0.00 0.00 0.00 81 1018.1
20260507062516 61 0.0 0.0 0.00 0.00 0.00 81 1018.1
20260507061515 61 0.0 0.0 0.00 0.00 0.00 81 1018.1
20260507060515 61 0.0 0.0 0.00 0.00 0.00 80 1018.1
20260507055515 61 0.0 0.0 0.00 0.00 0.00 80 1018.1
20260507054516 61 0.0 0.0 0.00 0.00 0.00 80 1018.1
20260507053535 61 0.0 0.0 0.00 0.00 0.00 80 1018.2
20260507052516 62 0.0 0.0 0.00 0.00 0.00 79 1018.2
20260507051536 62 306 0.0 3.0 0.00 0.00 0.00 79 1018.2
20260507050556 62 307 0.0 3.0 0.00 0.00 0.00 79 1018.2
20260507045516 62 307 0.0 2.0 0.00 0.00 0.00 78 1018.1
20260507044516 62 309 1.0 5.0 0.00 0.00 0.00 78 1018.1
20260507043515 63 311 2.0 4.0 0.00 0.00 0.00 77 1018.0
20260507042535 63 317 2.0 5.0 0.00 0.00 0.00 77 1018.0
20260507041515 63 318 0.0 3.0 0.00 0.00 0.00 77 1018.0
20260507040535 63 319 0.0 5.0 0.00 0.00 0.00 76 1018.0